Hourly Data Report for October 01, 2017

All times are specified in Local Standard Time (LST). Add 1 hour to adjust for Daylight Saving Time where and when it is observed.

GRAND RAPIDS (AUT)
MANITOBA

53°11'11.064" N
99°16'04.098" W
222.50 m
5031A10
71858
WJD

Download Data

Hourly Data (October 2017)
Hourly Data Report for October 1, 2017
Temp Definition
°C
Dew Point Temp Definition
°C
Rel Hum Definition
%
Wind Dir Definition
10's deg

Wind Spd Definition
km/h
Visibility Definition
km
Stn Press Definition
kPa
Hmdx Definition


Wind Chill Definition


Weather Definition


TIME
00:00 14.7 10.1 74 16 9   97.82     LegendNANA
01:00 14.5 10.4 76 15 8   97.76     LegendNANA
02:00 14.6 10.5 77 14 7   97.72     LegendNANA
03:00 14.3 10.7 79 13 5   97.66     LegendNANA
04:00 14.3 10.9 80 15 10   97.63     LegendNANA
05:00 13.1 11.5 90 15 5   97.61     LegendNANA
06:00 12.8 11.6 92 15 4   97.56     LegendNANA
07:00 12.9 11.7 93 15 5   97.54     LegendNANA
08:00 13.2 11.8 91 16 6   97.56     LegendNANA
09:00 14.0 11.8 86 16 7   97.55     LegendNANA
10:00 14.1 11.5 85 15 9   97.57     LegendNANA
11:00 15.6 11.9 79 16 11   97.57     LegendNANA
12:00 16.1 12.1 77 14 9   97.52     LegendNANA
13:00 16.8 12.1 74 14 9   97.49     LegendNANA
14:00 16.3 12.2 77 10 7   97.48     LegendNANA
15:00 15.8 11.9 78 12 8   97.47     LegendNANA
16:00 15.8 11.4 76 13 7   97.47     LegendNANA
17:00 15.1 11.7 80 11 6   97.47     LegendNANA
18:00 14.9 12.0 83 11 5   97.49     LegendNANA
19:00 15.2 11.4 78 14 9   97.51     LegendNANA
20:00 14.9 11.6 81 15 7   97.51     LegendNANA
21:00 14.7 11.8 83 15 8   97.52     LegendNANA
22:00 14.3 11.8 85 18 5   97.51     LegendNANA
23:00 14.0 11.9 87 15 3   97.52     LegendNANA

Notes on Data Quality.

Legend

  • E = Estimated
  • M = Missing
  • NA = Not Available
  • ‡ = Partner data that is not subject to review by the National Climate Archives
Date modified: